| time (UTC) | temp C | wind direction | speed KPH | gust KPH | rain 1hr cm | rain 24hr cm | rain mn cm | humidity % | barometer mb |
| 20260503224517 | 14 | 225 | 19.3 | 33.8 | 0.00 | 0.00 | 0.00 | 43 | 1010.0 |
| 20260503223517 | 14 | 225 | 17.7 | 27.4 | 0.00 | 0.00 | 0.00 | 42 | 1010.0 |
| 20260503222517 | 14 | 225 | 19.3 | 30.6 | 0.00 | 0.00 | 0.00 | 44 | 1010.2 |
| 20260503221517 | 14 | 225 | 16.1 | 30.6 | 0.00 | 0.00 | 0.00 | 43 | 1010.3 |
| 20260503220517 | 15 | 225 | 19.3 | 33.8 | 0.00 | 0.00 | 0.00 | 42 | 1010.4 |
| 20260503215538 | 15 | 225 | 17.7 | 29.0 | 0.00 | 0.00 | 0.00 | 43 | 1010.3 |
| 20260503214517 | 15 | 225 | 20.9 | 32.2 | 0.00 | 0.00 | 0.00 | 43 | 1010.3 |
| 20260503213518 | 15 | 225 | 20.9 | 32.2 | 0.00 | 0.00 | 0.00 | 44 | 1010.4 |
| 20260503212517 | 14 | 225 | 20.9 | 35.4 | 0.00 | 0.00 | 0.00 | 43 | 1010.5 |
| 20260503211537 | 15 | 225 | 22.5 | 40.2 | 0.00 | 0.00 | 0.00 | 43 | 1010.5 |
| 20260503210517 | 15 | 248 | 17.7 | 25.7 | 0.00 | 0.00 | 0.00 | 44 | 1010.5 |
| 20260503205517 | 15 | 225 | 22.5 | 33.8 | 0.00 | 0.00 | 0.00 | 41 | 1010.5 |
| 20260503204517 | 15 | 248 | 19.3 | 33.8 | 0.00 | 0.00 | 0.00 | 44 | 1010.6 |
| 20260503203537 | 15 | 248 | 22.5 | 35.4 | 0.00 | 0.00 | 0.00 | 42 | 1010.6 |
| 20260503202517 | 15 | 248 | 20.9 | 30.6 | 0.00 | 0.00 | 0.00 | 43 | 1010.7 |
| 20260503201517 | 15 | 225 | 19.3 | 33.8 | 0.00 | 0.00 | 0.00 | 44 | 1010.7 |
| 20260503200517 | 15 | 225 | 17.7 | 30.6 | 0.00 | 0.00 | 0.00 | 43 | 1010.9 |
| 20260503195537 | 15 | 225 | 17.7 | 29.0 | 0.00 | 0.00 | 0.00 | 40 | 1011.0 |
| 20260503194517 | 15 | 248 | 19.3 | 29.0 | 0.00 | 0.00 | 0.00 | 45 | 1011.2 |
| 20260503193517 | 15 | 225 | 16.1 | 29.0 | 0.00 | 0.00 | 0.00 | 43 | 1011.5 |
| 20260503192517 | 15 | 225 | 14.5 | 22.5 | 0.00 | 0.00 | 0.00 | 43 | 1011.6 |
| 20260503191517 | 14 | 225 | 14.5 | 24.1 | 0.00 | 0.00 | 0.00 | 46 | 1011.8 |
| 20260503190517 | 14 | 225 | 20.9 | 33.8 | 0.00 | 0.00 | 0.00 | 43 | 1011.9 |
| 20260503185517 | 14 | 225 | 20.9 | 32.2 | 0.00 | 0.00 | 0.00 | 44 | 1012.1 |
| 20260503184517 | 15 | 225 | 19.3 | 29.0 | 0.00 | 0.00 | 0.00 | 46 | 1012.2 |
| 20260503183517 | 15 | 225 | 20.9 | 33.8 | 0.00 | 0.00 | 0.00 | 42 | 1012.3 |
| 20260503182537 | 15 | 225 | 22.5 | 32.2 | 0.00 | 0.00 | 0.00 | 42 | 1012.6 |
| 20260503182038 | 14 | 248 | 20.9 | 35.4 | 0.00 | 0.00 | 0.00 | 44 | 1012.7 |
| 20260503181017 | 15 | 225 | 20.9 | 35.4 | 0.00 | 0.00 | 0.00 | 47 | 1012.8 |
| 20260503180017 | 14 | 225 | 19.3 | 32.2 | 0.00 | 0.00 | 0.00 | 45 | 1012.8 |
| 20260503175037 | 14 | 225 | 20.9 | 35.4 | 0.00 | 0.00 | 0.00 | 44 | 1012.9 |
| 20260503174037 | 13 | 225 | 20.9 | 32.2 | 0.00 | 0.00 | 0.00 | 45 | 1013.0 |
| 20260503173017 | 14 | 225 | 19.3 | 32.2 | 0.00 | 0.00 | 0.00 | 49 | 1013.2 |
| 20260503172018 | 13 | 248 | 17.7 | 25.7 | 0.00 | 0.00 | 0.00 | 51 | 1013.2 |
| 20260503171037 | 13 | 225 | 19.3 | 30.6 | 0.00 | 0.00 | 0.00 | 50 | 1013.5 |
| 20260503130636 | 7 | 225 | 11.3 | 17.7 | 0.00 | 0.00 | 0.00 | 55 | 1014.9 |
| 20260503110515 | 2 | 203 | 4.8 | 8.0 | 0.00 | 0.00 | 0.00 | 80 | 1014.1 |
| 20260503081016 | 1 | 225 | 4.8 | 6.4 | 0.00 | 0.00 | 0.00 | 83 | 1013.8 |
| 20260503072016 | 1 | 225 | 6.4 | 11.3 | 0.00 | 0.00 | 0.00 | 85 | |
| 20260503071016 | 1 | 225 | 4.8 | 8.0 | 0.00 | 0.00 | 0.00 | 86 | |
| 20260503054516 | 2 | 248 | 3.2 | 4.8 | 0.00 | 0.00 | 0.00 | 83 | 1014.1 |
| 20260503053556 | 3 | 225 | 3.2 | 8.0 | 0.00 | 0.00 | 0.00 | 82 | 1014.1 |
| 20260503052516 | 3 | 225 | 4.8 | 6.4 | 0.00 | 0.00 | 0.00 | 82 | 1014.1 |
| 20260503051515 | 3 | 225 | 4.8 | 6.4 | 0.00 | 0.00 | 0.00 | 81 | 1014.1 |
| 20260503050516 | 3 | 225 | 4.8 | 8.0 | 0.00 | 0.00 | 0.00 | 80 | 1014.1 |
| 20260503045516 | 3 | 225 | 4.8 | 6.4 | 0.00 | 0.00 | 0.00 | 80 | 1014.1 |
| 20260503044516 | 4 | 225 | 6.4 | 9.7 | 0.00 | 0.00 | 0.00 | 80 | 1014.2 |
| 20260503043556 | 4 | 225 | 4.8 | 8.0 | 0.00 | 0.00 | 0.00 | 80 | 1014.2 |
| 20260503042516 | 4 | 203 | 6.4 | 9.7 | 0.00 | 0.00 | 0.00 | 79 | 1014.2 |
| 20260503041516 | 4 | 225 | 4.8 | 6.4 | 0.00 | 0.00 | 0.00 | 79 | 1014.2 |
| 20260503040516 | 4 | 225 | 4.8 | 8.0 | 0.00 | 0.00 | 0.00 | 79 | 1014.2 |
| 20260503035517 | 4 | 203 | 4.8 | 8.0 | 0.00 | 0.00 | 0.00 | 78 | 1014.2 |
| 20260503034517 | 4 | 203 | 6.4 | 9.7 | 0.00 | 0.00 | 0.00 | 78 | 1014.2 |
| 20260503033515 | 4 | 225 | 4.8 | 9.7 | 0.00 | 0.00 | 0.00 | 78 | 1014.3 |
| 20260503032556 | 4 | 180 | 4.8 | 8.0 | 0.00 | 0.00 | 0.00 | 78 | 1014.3 |
| 20260503031515 | 4 | 203 | 4.8 | 6.4 | 0.00 | 0.00 | 0.00 | 78 | 1014.4 |
| 20260503030515 | 4 | 203 | 3.2 | 4.8 | 0.00 | 0.00 | 0.00 | 78 | 1014.4 |
| 20260503025515 | 4 | 203 | 4.8 | 8.0 | 0.00 | 0.00 | 0.00 | 77 | 1014.5 |
| 20260503024515 | 4 | 203 | 4.8 | 8.0 | 0.00 | 0.00 | 0.00 | 77 | 1014.5 |
| 20260503023515 | 4 | 203 | 4.8 | 6.4 | 0.00 | 0.00 | 0.00 | 77 | 1014.7 |
| 20260503022515 | 4 | 203 | 4.8 | 8.0 | 0.00 | 0.00 | 0.00 | 77 | 1014.7 |
| 20260503021515 | 4 | 203 | 4.8 | 6.4 | 0.00 | 0.00 | 0.00 | 77 | 1014.7 |
| 20260503020515 | 4 | 203 | 1.6 | 4.8 | 0.00 | 0.00 | 0.00 | 77 | 1014.6 |
| 20260503015515 | 4 | 0.0 | 0.0 | 0.00 | 0.00 | 0.00 | 76 | 1014.5 | |
| 20260503014556 | 4 | 203 | 3.2 | 6.4 | 0.00 | 0.00 | 0.00 | 76 | 1014.6 |
| 20260503013515 | 5 | 203 | 3.2 | 6.4 | 0.00 | 0.00 | 0.00 | 76 | 1014.7 |
| 20260503012515 | 5 | 180 | 3.2 | 6.4 | 0.00 | 0.00 | 0.00 | 75 | 1014.6 |
| 20260503011556 | 5 | 180 | 1.6 | 3.2 | 0.00 | 0.00 | 0.00 | 75 | 1014.5 |
| 20260503010515 | 5 | 180 | 3.2 | 4.8 | 0.00 | 0.00 | 0.00 | 74 | 1014.5 |
| 20260503005515 | 5 | 225 | 3.2 | 6.4 | 0.00 | 0.00 | 0.00 | 74 | 1014.4 |
| 20260503004515 | 5 | 203 | 3.2 | 4.8 | 0.00 | 0.00 | 0.00 | 74 | 1014.4 |
| 20260503003515 | 5 | 203 | 3.2 | 6.4 | 0.00 | 0.00 | 0.00 | 73 | 1014.4 |
| 20260503002515 | 5 | 225 | 4.8 | 6.4 | 0.00 | 0.00 | 0.00 | 73 | 1014.5 |
| 20260503001515 | 5 | 225 | 4.8 | 8.0 | 0.00 | 0.00 | 0.00 | 73 | 1014.5 |
| 20260503000515 | 5 | 225 | 3.2 | 6.4 | 0.00 | 0.00 | 0.00 | 73 | 1014.4 |
| 20260502235515 | 5 | 225 | 3.2 | 6.4 | 0.00 | 0.00 | 0.00 | 72 | 1014.4 |
| 20260502234515 | 5 | 203 | 3.2 | 6.4 | 0.00 | 0.00 | 0.00 | 71 | 1014.4 |
| 20260502233521 | 5 | 248 | 4.8 | 6.4 | 0.00 | 0.00 | 0.00 | 69 | 1014.4 |
| 20260502233036 | 5 | 248 | 3.2 | 6.4 | 0.00 | 0.00 | 0.00 | 69 | 1014.4 |
| 20260502232056 | 5 | 293 | 3.2 | 4.8 | 0.00 | 0.00 | 0.00 | 68 | 1014.4 |
| 20260502231016 | 5 | 270 | 1.6 | 3.2 | 0.00 | 0.00 | 0.00 | 68 | 1014.3 |
| 20260502230036 | 5 | 293 | 1.6 | 3.2 | 0.00 | 0.00 | 0.00 | 67 | 1014.3 |
| 20260502225015 | 5 | 293 | 1.6 | 4.8 | 0.00 | 0.00 | 0.00 | 66 | 1014.3 |